Location: Starlight Observatory
(38.4029°N, 85.8936°W)
Time: 19:55:25
(UTC-04:00)

Iridium 84 - Visible Passes

Search period start: 24 April 2014 00:00
Search period end: 04 May 2014 00:00
Orbit: 776 x 779 km, 86.4° (Epoch: 24 April)

Date Brightness Start Highest point End Pass type
(mag) Time Alt. Az. Time Alt. Az. Time Alt. Az.
24 Apr 8.7 05:14:33 10° NE 05:16:45 13° ENE 05:18:57 10° E visible
25 Apr 6.1 06:19:17 10° N 06:24:28 64° E 06:29:37 10° SSE visible
26 Apr 7.4 05:46:06 10° NNE 05:50:50 34° E 05:55:31 10° SSE visible
27 Apr 8.3 05:13:28 10° NNE 05:17:03 19° ENE 05:20:38 10° ESE visible
28 Apr 5.6 06:19:19 10° N 06:24:33 87° W 06:29:45 10° S visible
29 Apr 6.5 05:45:56 10° N 05:51:00 50° E 05:56:01 10° SSE visible
30 Apr 7.7 05:12:56 10° NNE 05:17:18 27° E 05:21:39 10° SE visible
01 May 8.4 04:40:41 10° NE 04:43:29 14° ENE 04:46:16 10° ESE visible
02 May 5.8 05:45:53 10° N 05:51:07 74° E 05:56:18 10° S visible
03 May 7.0 05:12:38 10° NNE 05:17:30 39° E 05:22:19 10° SSE visible
